Погода в Виджаяваде

Индия     16°30′38″N   80°38′35″E
темп.,
°C
ветер,
м/с
пор.,
м/с
влажн.,
%
обл.,
%
осадки,
мм/ч
давл.,
гПа
погр.,
м
25 февраля, чт
чт2523:30+22ююз23770 0.0 101240
02:30+20юз11801 0.0 101123
05:30+19ю118236 0.0 101123
08:30+25зюз225816 0.0 1014290
11:30+35зюз222414 0.0 10131279
14:30+38юз22160 0.0 10092653
17:30+33ююз78330 0.0 1008541
20:30+24ю35680 0.0 1010130
26 февраля, пт
пт2623:30+22зюз12760 0.0 101023
02:30+21зюз34730 0.0 100980
05:30+19с11750 0.0 100923
08:30+26юз224665 0.0 1011283
11:30+35ююз322132 0.0 10101095
14:30+39ююз13120 0.0 10063467
17:30+32ю69340 0.0 1006479
20:30+23ююз12680 0.0 100923
27 февраля, сб
сб2723:30+23юз23710 0.0 100830
02:30+20ююз11790 0.0 100723
05:30+20св11810 0.0 100723
08:30+26ююв12560 0.0 1010290
11:30+36зюз22230 0.0 10101053
14:30+39ююз13140 0.0 10063090
17:30+32ююз810371 0.0 1005592
20:30+24ю23630 0.0 100852
28 февраля, вс
вс2823:30+23юз12730 0.0 100824
02:30+21юз11830 0.0 100723
05:30+20вюв12890 0.0 100723
08:30+27юв12650 0.0 1011310
11:30+35ю32300 0.0 10101279
14:30+39ю23170 0.0 10073809
17:30+31ю710450 0.0 1007552
20:30+25ю38750 0.0 1009286
1 марта, пн
пн123:30+22вюв22860 0.0 101024
02:30+21всв12910 0.0 100923
05:30+20в12940 0.0 100923
08:30+26юв23670 0.0 1012399
11:30+35ю44270 0.0 10121373
14:30+37ююз53210 0.0 10092080
17:30+31ю710350 0.0 1009509
20:30+24ю49750 0.0 1011236